Location: Minneapolis
(45.0000°N, 93.0000°W)
Time: 07:37:18
(UTC-05:00)

ISS - Pass Details

Date: 16 March 2018
Orbit: 403 x 408 km, 51.6° (Epoch: 22 September)

Event Time Altitude Azimuth Distance (km) Brightness Sun altitude
Exits shadow 03:56:03 - 70° (ENE) 1,857 0.3 -34.9°
Enters shadow 04:56:06 -60° 283° (WNW) 11,575 3.5 -26.0°
Maximum altitude 05:29:21 51° 23° (NNE) 528 -3.1 -20.5°
